Lid_Strength_Index
4 3 2 2 2 2 2 3 2 2 2 2 2 2 2 2 2 3 3 3 3 3 2 2 2 2 2 2 3 3 4 4 5 4 3 2 1 2 1 0 -1 -1 -1
4 3 2 2 2 3 3 3 2 2 2 2 2 2 2 2 2 3 3 3 3 3 2 2 2 2 2 2 3 3 3 3 4 4 3 3 2 1 1 1 -0 -1 -1
3 3 2 2 3 2 2 2 2 2 2 2 2 2 2 2 3 3 3 3 3 3 2 3 2 3 3 3 3 3 3 3 3 4 4 2 2 1 1 0 -0 -0 -1
2 3 2 2 2 2 2 2 2 2 2 2 2 2 2 2 3 3 2 3 3 3 3 3 3 4 4 4 4 3 3 3 3 3 3 3 2 1 1 1 2 0 1
2 3 2 2 2 2 2 2 3 3 3 2 2 2 2 3 3 3 4 3 4 4 4 4 4 4 3 3 3 3 3 3 3 4 3 3 4 3 3 2 2 1 1
2 2 2 2 2 3 3 3 3 3 3 3 3 3 3 4 6 6 4 4 4 5 5 5 4 4 4 3 3 3 3 4 4 5 5 5 4 2 2 3 3 3 4
3 2 2 2 2 2 3 3 3 3 4 4 4 5 5 5 8 8 6 5 5 5 5 6 6 5 4 4 4 4 4 4 4 4 5 5 4 2 3 4 3 4 3
4 3 3 3 4 4 4 4 5 5 5 6 6 6 6 6 8 8 7 5 6 6 6 6 6 6 5 6 5 5 5 4 4 4 4 4 4 3 3 3 3 3 2
5 4 3 4 4 4 5 6 7 7 7 7 7 7 7 7 9 8 7 6 7 6 6 5 6 6 7 8 6 6 6 6 5 6 6 6 6 6 5 3 5 4 5
6 6 5 4 4 6 7 7 8 8 8 8 8 7 8 7 8 8 8 7 7 7 6 7 7 7 8 8 7 7 8 7 6 6 5 6 6 5 6 5 4 4 5
6 6 7 7 7 7 8 7 8 8 9 9 8 8 8 7 7 9 9 7 8 8 8 8 7 8 9 9 9 8 8 7 7 8 8 7 6 5 4 4 4 4 5
6 7 8 7 7 7 8 8 8 9 9 9 9 9 9 8 9 9 9 9 8 8 8 8 8 9 9 9 9 9 9 9 9 9 9 9 8 6 5 3 3 3 3
6 8 7 7 7 8 8 9 9 8 9 9 10 10 9 9 9 9 9 9 9 9 8 8 9 9 9 9 9 9 9 9 10 10 10 9 9 7 5 4 3 4 3
7 8 8 8 8 8 9 9 10 10 10 10 10 11 11 10 9 9 9 9 9 9 9 8 8 8 9 9 9 8 8 9 10 11 11 9 9 9 8 6 5 5 6
8 8 9 9 9 9 10 10 10 10 10 10 11 11 11 11 9 9 9 9 9 9 9 10 9 9 9 8 8 8 8 9 10 10 11 11 10 10 9 8 6 5 6
8 9 9 9 9 10 11 11 12 12 11 12 12 11 10 11 11 11 11 10 11 11 11 10 9 9 9 8 9 9 10 10 10 10 11 11 11 11 11 9 7 6 7
8 9 10 10 10 10 11 11 12 11 12 11 12 11 11 11 11 11 11 11 11 11 10 8 8 8 7 9 9 9 10 9 9 10 11 11 11 11 12 11 9 8 7
8 9 9 10 10 10 11 11 11 12 12 11 11 11 11 11 11 11 11 11 8 8 7 8 8 8 8 10 10 10 10 10 10 10 10 11 11 11 12 12 11 10 8
8 8 8 9 10 10 11 11 11 11 11 10 10 10 10 11 11 11 11 8 9 8 8 8 8 9 10 10 10 11 11 11 11 10 10 9 10 11 11 11 11 12 10
7 9 9 9 10 10 10 11 11 11 11 10 11 10 9 10 10 9 9 8 8 8 9 9 9 10 10 11 11 11 11 11 10 10 10 10 9 10 10 10 11 11 9
7 8 11 8 9 9 10 10 10 10 10 10 11 10 13 11 10 10 9 8 9 9 9 10 11 11 11 11 11 11 11 11 10 9 9 9 9 10 10 9 10 10 8
6 7 8 8 9 9 9 9 9 10 10 11 10 10 13 10 10 9 9 9 9 10 11 11 11 11 11 11 12 11 12 11 9 8 9 9 9 9 9 10 9 10 8
6 7 8 8 8 9 9 10 10 11 11 11 11 11 11 10 10 10 10 11 11 11 11 11 11 11 11 11 11 11 11 10 8 7 8 8 8 9 9 9 8 9 8
6 7 7 8 9 9 10 11 11 12 11 11 11 11 11 10 11 11 11 12 12 12 11 11 11 11 11 12 11 11 10 6 7 6 7 7 8 8 6 6 6 6 7
7 8 8 9 10 11 11 11 12 12 12 11 11 11 11 11 12 12 12 12 12 12 11 11 11 11 12 12 11 11 12 14 5 8 4 3 4 4 5 6 5 6 6
8 8 10 10 11 12 12 12 12 11 12 12 12 11 12 11 12 12 12 12 12 12 11 11 11 11 12 12 11 13 13 12 8 11 3 3 3 3 2 2 3 4 5